[Date Prev][Date Next][Thread Prev][Thread Next] - [Date Index][Thread Index][Author Index]
2 Line ISS Keps 6-2
- Subject: [sarex] 2 Line ISS Keps 6-2
- From: "Dr Dave Larsen [ PhD ]" <doc@xxxxxxxxxxx>
- Date: Sat, 2 Jun 2001 05:19:13 -0700
ISS
1 25544U 98067A 01153.45981434 .00027352 00000-0 32213-3 0 295
2 25544 51.5707 163.0254 0017626 112.7208 22.6150 15.60998750144770
----
Via the sarex mailing list at AMSAT.ORG courtesy of AMSAT-NA.
To unsubscribe, send "unsubscribe sarex" to Majordomo@amsat.org
AMSAT Home